Saas-Fee, Switzerland 16 day weather forecast

Slopes altitude range 1800 m - 3500m

Number of lifts: 22 Pistes: 100km

In some cases the lift and piste totals shown are for the ski domain (e.g. Three Valleys) rather than individual resort (e.g. Courchevel)

Overview

The 16 day weather forecast is fully updated 4 times every day.

    • Sun 25 FEB 2018
    • Sun 25
    • -10C -8C
    • Mon 26 FEB 2018
    • Mon 26
    • -23C -17C
    • Tue 27 FEB 2018
    • Tue 27
    • -23C -17C
    • Wed 28 FEB 2018
    • Wed 28
    • -24C -15C
    • Thu 01 MAR 2018
    • Thu 01
    • -16C -11C
    • Fri 02 MAR 2018
    • Fri 02
    • -7C -4C
    • Sat 03 MAR 2018
    • Sat 03
    • -9C -3C
    • Sun 04 MAR 2018
    • Sun 04
    • -8C -3C
    • Mon 05 MAR 2018
    • Mon 05
    • -5C -2C
    • Tue 06 MAR 2018
    • Tue 06
    • -8C -3C
    • Wed 07 MAR 2018
    • Wed 07
    • -3C 0C
    • Thu 08 MAR 2018
    • Thu 08
    • -7C 0C
    • Fri 09 MAR 2018
    • Fri 09
    • -5C -3C
    • Sat 10 MAR 2018
    • Sat 10
    • -8C -1C
    • Sun 11 MAR 2018
    • Sun 11
    • -11C -1C
    • Mon 12 MAR 2018
    • Mon 12
    • -8C 1C

Date:

Time Type 0°C level Temp Chill Snow Cloud Speed Gust Dir Press
3:00 1286m -7°C -7_4 2cm 99% 4mph 4mph 1012mB
6:00 1018m -9°C -9_3 2cm 99% 3mph 3mph 1013mB
9:00 948m -9°C -9_5 1cm 95% 5mph 4mph 1013mB
12:00 863m -8°C -8_5 1cm 96% 5mph 5mph 1013mB
15:00 640m -9°C -9_4 2cm 99% 4mph 4mph 1013mB
18:00 330m -9°C -9_1 1cm 98% 1mph 2mph 1016mB
21:00 3m -15°C -15_2 1cm 95% 2mph 3mph 1018mB
0:00 0m -18°C -18_4 1cm 94% 4mph 4mph 1018mB
3:00 0m -21°C -21_4 1cm 89% 4mph 4mph 1018mB
6:00 0m -23°C -23_5 0cm 71% 5mph 6mph 1018mB
9:00 0m -23°C -23_1 0cm 37% 1mph 1mph 1016mB
12:00 0m -17°C -17_4 1cm 58% 4mph 3mph 1015mB
15:00 0m -16°C -16_4 1cm 100% 4mph 4mph 1014mB
18:00 0m -15°C -15_2 1cm 100% 2mph 3mph 1016mB
21:00 0m -19°C -19_2 1cm 99% 2mph 2mph 1017mB
0:00 0m -20°C -20_3 1cm 99% 3mph 4mph 1017mB
3:00 0m -21°C -21_3 1cm 97% 3mph 3mph 1016mB
6:00 0m -23°C -23_4 1cm 94% 4mph 4mph 1016mB
9:00 0m -23°C -23_4 1cm 87% 4mph 3mph 1015mB
12:00 0m -17°C -17_5 1cm 90% 5mph 3mph 1013mB
15:00 0m -16°C -16_3 1cm 99% 3mph 3mph 1012mB
18:00 0m -16°C -16_2 1cm 99% 2mph 3mph 1014mB
21:00 0m -19°C -19_4 1cm 96% 4mph 4mph 1016mB
0:00 0m -20°C -20_3 1cm 97% 3mph 4mph 1017mB
3:00 0m -22°C -22_4 1cm 96% 4mph 5mph 1018mB
6:00 0m -24°C -24_7 1cm 85% 7mph 7mph 1019mB
9:00 0m -24°C -24_5 0cm 52% 5mph 5mph 1018mB
12:00 39m -15°C -15_7 1cm 74% 7mph 7mph 1016mB
15:00 27m -14°C -14_6 1cm 98% 6mph 6mph 1015mB
18:00 0m -14°C -14_4 1cm 98% 4mph 5mph 1016mB
21:00 0m -17°C -17_5 1cm 95% 5mph 7mph 1017mB
0:00 0m -17°C -17_6 1cm 97% 6mph 8mph 1016mB
3:00 0m -17°C -17_5 1cm 97% 5mph 7mph 1014mB
6:00 0m -17°C -17_6 1cm 98% 6mph 8mph 1013mB
9:00 213m -16°C -16_6 1cm 100% 6mph 7mph 1012mB
12:00 561m -11°C -11_6 2cm 100% 6mph 7mph 1010mB
15:00 708m -10°C -10_6 2cm 100% 6mph 6mph 1008mB
18:00 575m -10°C -10_3 1cm 100% 3mph 3mph 1008mB
21:00 517m -12°C -12_3 1cm 98% 3mph 4mph 1008mB
0:00 748m -12°C -12_3 1cm 98% 3mph 3mph 1006mB
3:00 1114m -10°C -10_3 2cm 100% 3mph 4mph 1004mB
6:00 1247m -10°C -10_2 3cm 100% 2mph 3mph 1002mB
9:00 1516m -7°C -7_3 3cm 100% 3mph 3mph 1002mB
12:00 1718m -4°C -4_1 3cm 100% 1mph 1mph 1002mB
15:00 1987m -2°C -2_1 1cm 100% 1mph 2mph 1001mB
18:00 1461m -2°C -2_5 1cm 100% 5mph 5mph 1003mB
21:00 1206m -7°C -7_5 0cm 76% 5mph 5mph 1004mB
0:00 1355m -7°C -7_6 0cm 87% 6mph 6mph 1004mB
3:00 1006m -8°C -8_6 1cm 99% 6mph 6mph 1004mB
6:00 837m -9°C -9_7 0cm 71% 7mph 7mph 1004mB
9:00 1691m -9°C -9_3 0cm 78% 3mph 3mph 1003mB
12:00 1823m -3°C -3_5 0cm 87% 5mph 5mph 1002mB
15:00 1736m -3°C -3_1 2cm 99% 1mph 2mph 1002mB
18:00 1548m -3°C -3_4 1cm 98% 4mph 4mph 1005mB
21:00 1467m -6°C -6_6 1cm 94% 6mph 7mph 1006mB
0:00 981m -8°C -8_8 1cm 72% 8mph 8mph 1007mB
3:00 831m -9°C -9_9 0cm 10% 9mph 10mph 1006mB
6:00 1048m -9°C -9_8 0cm 44% 8mph 8mph 1006mB
9:00 1773m -8°C -8_4 1cm 90% 4mph 5mph 1004mB
12:00 1839m -3°C -3_5 1cm 92% 5mph 6mph 1002mB
15:00 1841m -3°C -3_6 1cm 100% 6mph 7mph 1000mB
18:00 1619m -3°C -3_4 1cm 100% 4mph 5mph 1000mB
21:00 1570m -5°C -5_4 4cm 100% 4mph 6mph 1000mB
0:00 1566m -5°C -5_3 3cm 100% 3mph 4mph 998mB
3:00 1569m -5°C -5_2 3cm 99% 2mph 2mph 997mB
6:00 1536m -5°C -5_1 2cm 99% 1mph 1mph 997mB
9:00 1839m -5°C -5_5 1cm 98% 5mph 5mph 995mB
12:00 1900m -2°C -2_6 2cm 98% 6mph 7mph 993mB
15:00 1804m -2°C -2_6 4cm 99% 6mph 8mph 991mB
18:00 1654m -2°C -2_5 3cm 99% 5mph 6mph 992mB
21:00 1589m -5°C -5_1 4cm 100% 1mph 2mph 993mB
0:00 1545m -5°C -5_1 3cm 100% 1mph 1mph 994mB
3:00 1370m -6°C -6_1 1cm 99% 1mph 1mph 993mB
6:00 1213m -7°C -7_2 1cm 98% 2mph 2mph 994mB
9:00 1613m -8°C -8_2 1cm 100% 2mph 2mph 994mB
12:00 1852m -3°C -3_5 1cm 98% 5mph 6mph 993mB
15:00 1946m -2°C -2_6 1cm 97% 6mph 6mph 992mB
18:00 1732m -2°C -2_7 2cm 99% 7mph 10mph 993mB
21:00 1560m -5°C -5_7 5cm 100% 7mph 9mph 991mB
0:00 1516m -6°C -6_6 7cm 100% 6mph 9mph 988mB
Afternoon 1.69792mm 0.0625 1790m 0°C 0_9 14cm 100% 9mph 14mph 989mB
Morning 0.0729167mm 0.0625 1420m -4°C -4_9 1cm 100% 9mph 12mph 999mB
Afternoon 0.00520833mm 0 1772m 0°C 0_5 0cm 45% 5mph 5mph 1001mB
Morning 1.10417mm 0.875 1372m -4°C -4_4 9cm 89% 4mph 8mph 1004mB
Afternoon 1.32812mm 0.0625 1373m -3°C -3_4 11cm 100% 4mph 5mph 1000mB
Morning 0.979167mm 0.0625 1044m -6°C -6_9 8cm 100% 9mph 14mph 1005mB
Afternoon 0.078125mm 0.25 1698m -1°C -1_7 2cm 91% 7mph 10mph 1009mB
Morning 0.432292mm 0.8125 971m -6°C -6_5 6cm 86% 5mph 6mph 1018mB
Afternoon 0.0416667mm 0.0625 1650m -1°C -1_9 0cm 42% 9mph 11mph 1020mB
Morning 0.078125mm 0.125 804m -7°C -7_6 1cm 71% 6mph 6mph 1025mB
Afternoon 0mm 0 2056m 1°C 1_6 0cm 11% 6mph 11mph 1024mB
Morning 0mm 0 1371m -4°C -4_8 0cm 7% 8mph 8mph 1029mB

16 day outlook at a glance

Forecast issued: 25/02/2018 07:20:48

Chat

Your comments and questions. In a resort? Let us know what it's like!


Characters left 250

For terms and conditions see Readers Comments on the Cookie and privacy policy page.